Location: Newark
(31.5350°N, 35.0986°E)
Time: 05:39:45
(UTC+00:00)

Courier 1B - Pass Details

Date: 22 September 2019
Orbit: 962 x 1209 km, 28.3° (Epoch: 19 October)

Event Time Altitude Azimuth Distance (km) Brightness Sun altitude
Exits shadow 01:07:26 22° 163° (SSE) 1,993 9.0 -30.0°
Maximum altitude 01:08:13 23° 153° (SSE) 1,978 9.1 -29.8°
Drops below altitude 10° 01:13:17 10° 104° (ESE) 2,802 10.6 -28.8°
Sets 01:16:39 0° 90° (E) 3,799 11.7 -28.2°
